Regional Weather Roundup
Issued by NWS

Home | Current Version | Previous Version | Text Only | Print | Product List | Glossary On
Versions: 1 2 3 4 5 6 7 8 9 10 11 12 13 14 15 16 17 18 19 20 21 22 23 24 25 26 27 28 29 30 31 32 33 34 35 36 37 38 39 40 41 42 43 44 45 46 47 48 49 50
000
ASUS45 KBOU 061210
RWRCO

WEATHER ROUNDUP FOR COLORADO
NATIONAL WEATHER SERVICE DENVER/BOULDER CO
600 AM MDT MON JUL 06 2015

NOTE: "FAIR" INDICATES FEW OR NO CLOUDS BELOW 12000 FEET WITH NO
SIGNIFICANT WEATHER AND/OR OBSTRUCTIONS TO VISIBILITY.

COZ001>005-013-030-031-061300-
...NORTHWEST COLORADO...

CITY           SKY/WX    TMP DP  RH WIND       PRES   REMARKS
CRAIG          FOG       52  51  97 CALM      30.25S VSB 1/4
HAYDEN         CLOUDY    54  50  87 E8        30.27R
MEEKER         CLOUDY    56  52  86 CALM      30.26R
MOUNT WERNER   NOT AVBL
STEAMBOAT SPGS CLOUDY    50  50 100 CALM      30.29R VSB 1/2
WALDEN         CLOUDY    50  46  87 CALM      30.33R
$$

COZ006>008-011-061300-
...WEST CENTRAL VALLEYS...

CITY           SKY/WX    TMP DP  RH WIND       PRES   REMARKS
GRAND JUNCTION CLEAR     60  57  89 CALM      30.13S
MONTROSE       PTCLDY    58  53  84 CALM      30.22R
EAGLE          CLOUDY    55  55 100 NE5       30.29R
RIFLE          MOCLDY    58  55  90 E6        30.21R
DELTA          PTCLDY    60  56  87 NE5       30.19R
NUCLA          PTCLDY    59  54  82 NE3       30.23S
$$

COZ017>023-064>068-061300-
...SOUTHWEST COLORADO...

CITY           SKY/WX    TMP DP  RH WIND       PRES   REMARKS
DURANGO        CLOUDY    54  49  83 N6        30.22R
CORTEZ         PTCLDY    60  53  77 N5        30.19R
PAGOSA SPRINGS CLOUDY    54  52  93 CALM      30.29R
TELLURIDE      MOCLDY    49  48  95 SE5       30.42R
WOLF CREEK PAS NOT AVBL
$$

COZ009-010-012-014-032>034-037-058>063-061300-
...CENTRAL COLORADO...

CITY           SKY/WX    TMP DP  RH WIND       PRES   REMARKS
ASPEN          CLOUDY    51  48  89 CALM      30.32S
BUENA VISTA    PTCLDY    56  46  71 W9        30.32R
COPPER MTN     CLOUDY    46  41  81 W17       30.58R
BERTHOUD PASS  HAZE      37  30  75 NW24      30.59S VSB<1/4
COTTONWOOD PAS NOT AVBL
GUNNISON       MOCLDY    48  45  87 N5        30.36R
KREMMLING      MOCLDY    50  46  87 CALM      30.33R
LEADVILLE      MOCLDY    46  45  96 N5        30.43R
MONARCH PASS   PTCLDY    43  37  81 W7        30.66S
SALIDA         PTCLDY    56  51  82 S3        30.36R
SUNLIGHT       MOCLDY    50  45  81 N3        30.54R
WILKERSON PASS PTCLDY    45  41  87 NW5       30.55R
$$

COZ069>075-061300-
...SAN LUIS VALLEY/SANGRE DE CRISTO MOUNTAINS...

CITY           SKY/WX    TMP DP  RH WIND       PRES   REMARKS
ALAMOSA        PTCLDY    56  53  90 NW5       30.27R
LA VETA PASS   DRIZZLE   46  45  93 MISG      30.44R
SAGUACHE       PTCLDY    50  50 100 N7        30.32R
$$

COZ035-036-038>040-061300-
...NORTHERN COLORADO FRONT RANGE...

CITY           SKY/WX    TMP DP  RH WIND       PRES   REMARKS
DENVER INTL AP CLOUDY    60  57  89 N12       30.19R
DMNS CITY PARK   N/A     62  58  87 NE3G13    30.19S
AURORA         CLOUDY    59  59 100 N7        30.21R
FRONT RANGE AP NOT AVBL
ERIE MUNI ARPT CLOUDY    62  60  94 CALM      30.18S
BOULDER MUN AP CLOUDY    63  59  88 CALM      30.19S
CENTENNIAL     CLOUDY    60  57  89 N8        30.21R
BROOMFIELD     CLOUDY    61  59  94 N6        30.21S
FORT COLLINS   MOCLDY    63  57  82 NE5       30.20S
LONGMONT       CLOUDY    64  61  87 E3        30.20S
$$

COZ041-046-047-076>085-087-088-061300-
...PIKES PEAK/PALMER DIVIDE AND SOUTHERN FOOTHILLS...

CITY           SKY/WX    TMP DP  RH WIND       PRES   REMARKS
COLO. SPRINGS  CLOUDY    62  56  80 NW10      30.21R
A. F. ACADEMY  MOCLDY    58  58  99 N10       30.22R
ELLICOTT       CLOUDY   N/A N/A N/A N17       30.18R
FALCON         CLOUDY    58  56  91 N8        30.26R
FORT CARSON    CLOUDY    64  57  78 N16       30.17R
LIMON          CLOUDY    60  59  96 N15       30.15R
MONUMENT HILL  CLOUDY    55  54  94 MISG      30.26S FOG
TRINIDAD       CLOUDY    63  57  81 NW3       30.16R
$$

COZ042>045-048>051-090-091-061300-
...NORTHEAST COLORADO...

CITY           SKY/WX    TMP DP  RH WIND       PRES   REMARKS
GREELEY ARPT   CLOUDY    63  55  77 NE8       30.17S
AKRON          CLOUDY    61  59  93 N16       30.13R
BURLINGTON     CLOUDY    65  62  90 N17G25    30.03R
WRAY           CLOUDY    65  61  85 N16G22    30.06R
STERLING       CLOUDY    63  59  88 N14         N/A
HOLYOKE        CLOUDY    64  61  88 N14G20    30.08R
FORT MORGAN    CLOUDY    62  56  82 N12G18    30.15R
$$

COZ086-089-092>099-061300-
...SOUTHEAST COLORADO...

CITY           SKY/WX    TMP DP  RH WIND       PRES   REMARKS
PUEBLO         LGT RAIN  69  60  73 NW6       30.11R
LA JUNTA       CLOUDY    66  62  87 NW7       30.06S
LAMAR          CLOUDY    68  64  87 N13       29.98F
SPRINGFIELD      N/A     65  61  87 NW16      30.03R
$$


USA.gov is the U.S. government's official web portal to all federal, state and local government web resources and services.